When you browse on this site, cookies collect data to enhance your experience and personalize the content and advertising you see.
Visit our Privacy Policy to learn more. By continuing to use the site, you agree to this use of cookies and data.
  • In Belgien
  • Länderverzeichnis
  • Für 7 Tage
  • Wassertemperatur
  • Satellitenkarten
  • Wetterkarte
  • Widgets
  • user-avatar
    Anmelden

    Stündliche Wetter Annaba

    Heute, 18 Juli, Donnerstag

    Zeit Temperatur Niederschläge Wind Luftdruck Luftfeuchtigkeit
    00:00 +24°C° 0 mm 2 m/S 757 mmHg 75%
    01:00 +24°C° 0 mm 2 m/S 757 mmHg 75%
    02:00 +24°C° 0 mm 2 m/S 757 mmHg 76%
    03:00 +24°C° 0 mm 2 m/S 757 mmHg 77%
    04:00 +23°C° 0 mm 2 m/S 756 mmHg 78%
    05:00 +24°C° 0 mm 2 m/S 756 mmHg 77%
    06:00 +25°C° 0 mm 2 m/S 757 mmHg 75%
    07:00 +25°C° 0 mm 1 m/S 757 mmHg 73%
    08:00 +27°C° 0 mm 2 m/S 757 mmHg 65%
    09:00 +28°C° 0 mm 2 m/S 758 mmHg 57%
    10:00 +30°C° 0 mm 2 m/S 758 mmHg 49%
    11:00 +31°C° 0 mm 3 m/S 758 mmHg 46%
    12:00 +32°C° 0 mm 4 m/S 758 mmHg 43%
    13:00 +33°C° 0 mm 4 m/S 758 mmHg 40%
    14:00 +32°C° 0 mm 4 m/S 758 mmHg 41%
    15:00 +32°C° 0 mm 4 m/S 758 mmHg 42%
    16:00 +32°C° 0 mm 4 m/S 758 mmHg 43%
    17:00 +30°C° 0 mm 4 m/S 758 mmHg 48%
    18:00 +29°C° 0 mm 3 m/S 758 mmHg 54%
    19:00 +28°C° 0 mm 2 m/S 759 mmHg 59%
    20:00 +27°C° 0 mm 2 m/S 759 mmHg 65%
    21:00 +26°C° 0 mm 1 m/S 760 mmHg 71%
    22:00 +25°C° 0 mm 1 m/S 760 mmHg 77%
    23:00 +24°C° 0 mm 1 m/S 760 mmHg 75%

    Morgen, 19 Juli, Freitag

    Zeit Temperatur Niederschläge Wind Luftdruck Luftfeuchtigkeit
    00:00 +24°C° 0 mm 1 m/S 760 mmHg 74%
    01:00 +24°C° 0 mm 1 m/S 760 mmHg 73%
    02:00 +24°C° 0 mm 1 m/S 760 mmHg 71%
    03:00 +24°C° 0 mm 1 m/S 760 mmHg 70%
    04:00 +23°C° 0 mm 1 m/S 759 mmHg 69%
    05:00 +24°C° 0 mm 1 m/S 760 mmHg 64%
    06:00 +25°C° 0 mm 1 m/S 760 mmHg 60%
    07:00 +24°C° 0 mm 0 m/S 760 mmHg 55%
    08:00 +28°C° 0 mm 1 m/S 760 mmHg 51%
    09:00 +29°C° 0 mm 1 m/S 760 mmHg 47%
    10:00 +31°C° 0 mm 2 m/S 760 mmHg 42%
    11:00 +33°C° 0 mm 3 m/S 760 mmHg 42%
    12:00 +33°C° 0 mm 4 m/S 760 mmHg 42%
    13:00 +34°C° 0 mm 4 m/S 760 mmHg 42%
    14:00 +33°C° 0 mm 5 m/S 760 mmHg 43%
    15:00 +33°C° 0 mm 5 m/S 759 mmHg 44%
    16:00 +33°C° 0 mm 5 m/S 759 mmHg 45%
    17:00 +32°C° 0 mm 5 m/S 759 mmHg 49%
    18:00 +30°C° 0 mm 4 m/S 759 mmHg 53%
    19:00 +29°C° 0 mm 4 m/S 759 mmHg 57%
    20:00 +28°C° 0 mm 4 m/S 760 mmHg 63%
    21:00 +26°C° 0 mm 3 m/S 760 mmHg 68%
    22:00 +25°C° 0 mm 3 m/S 760 mmHg 74%
    23:00 +25°C° 0 mm 2 m/S 760 mmHg 74%

    übermorgen, 20 Juli, Samstag

    Zeit Temperatur Niederschläge Wind Luftdruck Luftfeuchtigkeit
    00:00 +25°C° 0 mm 2 m/S 760 mmHg 74%
    01:00 +25°C° 0 mm 1 m/S 760 mmHg 75%
    02:00 +24°C° 0 mm 1 m/S 760 mmHg 74%
    03:00 +24°C° 0 mm 1 m/S 759 mmHg 73%
    04:00 +24°C° 0 mm 1 m/S 759 mmHg 72%
    05:00 +25°C° 0 mm 1 m/S 759 mmHg 66%
    06:00 +26°C° 0 mm 1 m/S 759 mmHg 60%
    07:00 +27°C° 0 mm 1 m/S 759 mmHg 55%
    08:00 +29°C° 0 mm 2 m/S 759 mmHg 49%
    09:00 +31°C° 0 mm 2 m/S 759 mmHg 43%
    10:00 +34°C° 0 mm 3 m/S 760 mmHg 38%
    11:00 +35°C° 0 mm 4 m/S 759 mmHg 38%
    12:00 +35°C° 0 mm 4 m/S 759 mmHg 39%
    13:00 +36°C° 0 mm 5 m/S 759 mmHg 39%
    14:00 +35°C° 0 mm 5 m/S 759 mmHg 42%
    15:00 +35°C° 0 mm 6 m/S 759 mmHg 45%
    16:00 +34°C° 0 mm 6 m/S 759 mmHg 47%
    17:00 +33°C° 0 mm 5 m/S 759 mmHg 50%
    18:00 +32°C° 0 mm 5 m/S 759 mmHg 53%
    19:00 +30°C° 0 mm 4 m/S 759 mmHg 56%
    20:00 +29°C° 0 mm 3 m/S 760 mmHg 63%
    21:00 +28°C° 0 mm 3 m/S 760 mmHg 69%
    22:00 +27°C° 0 mm 2 m/S 761 mmHg 75%
    23:00 +26°C° 0 mm 2 m/S 761 mmHg 75%

    21 Juli, Sonntag

    Zeit Temperatur Niederschläge Wind Luftdruck Luftfeuchtigkeit
    00:00 +26°C° 0 mm 1 m/S 761 mmHg 74%
    01:00 +26°C° 0 mm 1 m/S 760 mmHg 74%
    02:00 +26°C° 0 mm 1 m/S 760 mmHg 74%
    03:00 +26°C° 0 mm 1 m/S 760 mmHg 74%
    04:00 +25°C° 0 mm 1 m/S 760 mmHg 74%
    05:00 +26°C° 0 mm 1 m/S 760 mmHg 71%
    06:00 +27°C° 0 mm 1 m/S 761 mmHg 68%
    07:00 +28°C° 0 mm 1 m/S 761 mmHg 64%
    08:00 +29°C° 0 mm 1 m/S 761 mmHg 59%
    09:00 +31°C° 0 mm 2 m/S 761 mmHg 54%
    10:00 +34°C° 0 mm 3 m/S 761 mmHg 49%
    11:00 +34°C° 0 mm 4 m/S 761 mmHg 48%
    12:00 +35°C° 0 mm 4 m/S 761 mmHg 47%
    13:00 +35°C° 0 mm 5 m/S 761 mmHg 46%
    14:00 +35°C° 0 mm 6 m/S 761 mmHg 49%
    15:00 +34°C° 0 mm 6 m/S 761 mmHg 51%
    16:00 +33°C° 0 mm 6 m/S 760 mmHg 54%
    17:00 +33°C° 0 mm 5 m/S 760 mmHg 56%
    18:00 +32°C° 0 mm 4 m/S 760 mmHg 59%
    19:00 +30°C° 0 mm 4 m/S 761 mmHg 61%
    20:00 +29°C° 0 mm 3 m/S 761 mmHg 64%
    21:00 +28°C° 0 mm 3 m/S 761 mmHg 68%
    22:00 +27°C° 0 mm 3 m/S 762 mmHg 71%
    23:00 +27°C° 0 mm 2 m/S 762 mmHg 71%

    22 Juli, Montag

    Zeit Temperatur Niederschläge Wind Luftdruck Luftfeuchtigkeit
    00:00 +27°C° 0 mm 2 m/S 762 mmHg 71%
    01:00 +26°C° 0 mm 1 m/S 761 mmHg 71%
    02:00 +26°C° 0 mm 1 m/S 761 mmHg 71%
    03:00 +26°C° 0 mm 1 m/S 761 mmHg 72%
    04:00 +26°C° 0 mm 1 m/S 761 mmHg 72%
    05:00 +26°C° 0 mm 1 m/S 761 mmHg 68%
    06:00 +27°C° 0 mm 1 m/S 761 mmHg 64%
    07:00 +28°C° 0 mm 1 m/S 761 mmHg 61%
    08:00 +30°C° 0 mm 1 m/S 761 mmHg 54%
    09:00 +32°C° 0 mm 2 m/S 761 mmHg 47%
    10:00 +35°C° 0 mm 2 m/S 762 mmHg 39%
    11:00 +35°C° 0 mm 3 m/S 761 mmHg 39%
    12:00 +36°C° 0 mm 4 m/S 761 mmHg 38%
    13:00 +37°C° 0 mm 5 m/S 760 mmHg 37%
    14:00 +36°C° 0 mm 5 m/S 760 mmHg 38%
    15:00 +35°C° 0 mm 5 m/S 760 mmHg 40%
    16:00 +35°C° 0 mm 6 m/S 759 mmHg 41%
    17:00 +34°C° 0 mm 5 m/S 760 mmHg 45%
    18:00 +32°C° 0 mm 4 m/S 760 mmHg 50%
    19:00 +30°C° 0 mm 4 m/S 760 mmHg 54%
    20:00 +29°C° 0 mm 3 m/S 760 mmHg 59%
    21:00 +28°C° 0 mm 2 m/S 760 mmHg 64%
    22:00 +27°C° 0 mm 2 m/S 760 mmHg 69%
    23:00 +27°C° 0 mm 2 m/S 760 mmHg 68%

    23 Juli, Dienstag

    Zeit Temperatur Niederschläge Wind Luftdruck Luftfeuchtigkeit
    00:00 +26°C° 0 mm 1 m/S 760 mmHg 67%
    01:00 +26°C° 0 mm 1 m/S 760 mmHg 67%
    02:00 +26°C° 0 mm 1 m/S 760 mmHg 66%
    03:00 +25°C° 0 mm 1 m/S 760 mmHg 66%
    04:00 +25°C° 0 mm 1 m/S 759 mmHg 66%
    05:00 +26°C° 0 mm 1 m/S 759 mmHg 63%
    06:00 +27°C° 0 mm 1 m/S 759 mmHg 59%
    07:00 +28°C° 0 mm 1 m/S 760 mmHg 56%
    08:00 +30°C° 0 mm 1 m/S 760 mmHg 49%
    09:00 +32°C° 0 mm 1 m/S 760 mmHg 42%
    10:00 +36°C° 0 mm 2 m/S 760 mmHg 35%
    11:00 +36°C° 0 mm 2 m/S 759 mmHg 33%
    12:00 +37°C° 0 mm 3 m/S 759 mmHg 32%
    13:00 +37°C° 0 mm 4 m/S 759 mmHg 31%
    14:00 +36°C° 0 mm 4 m/S 758 mmHg 32%
    15:00 +36°C° 0 mm 4 m/S 758 mmHg 34%
    16:00 +35°C° 0 mm 4 m/S 758 mmHg 36%
    17:00 +34°C° 0 mm 4 m/S 758 mmHg 40%
    18:00 +33°C° 0 mm 3 m/S 758 mmHg 43%
    19:00 +31°C° 0 mm 3 m/S 758 mmHg 47%
    20:00 +30°C° 0 mm 2 m/S 758 mmHg 51%
    21:00 +28°C° 0 mm 2 m/S 759 mmHg 56%
    22:00 +27°C° 0 mm 1 m/S 759 mmHg 60%
    23:00 +27°C° 0 mm 1 m/S 759 mmHg 60%
    Mehr zeigen